OPS 4682 DEB, 1316

Orbit data source: Space-Track

OPS 4682 DEB, 1316 is space debris in LEO originally from a launch on Sat, 03 Apr 1965 UTC launched from the Air Force Western Test Range (AFWTR). Debris objects in space refer to the collection of defunct objects orbiting the Earth. Examples of debris include non-operational satellites, rocket bodies, and fragments generated from explosions, collisions, or faulty payload assembly.

Loading next visibility...
Identifier
1316, 1965-027C
Orbit
LEO
Country
Flag of USUS
Related business
Manufacturer
Unknown
Mission
Spacecraft
Bus & Motor
Unknown
Mass
7 kg wet, 7 kg dry
Launch date (UTC)
1965-04-03 (61 years ago)
Launch vehicle
Unknown
Launch site
Air Force Western Test Range (AFWTR)
Object type
Payload
Rocket body
Debris
Shape & HBR
Unknown
Radar Cross Section
Medium (>0.1 m² and <1 m²)

Expand to show TLE details & history
Last TLE update: 9 hours ago

TLE from 9 hours ago
0 OPS 4682 DEB
1 01316U 65027C   25308.22636337  .00001188  00000-0  28345-2 0  9993
2 01316  90.2571  21.9260 0034852  87.3830 273.1293 13.22132480889275
Epoch: 2025-11-04T05:25Z
TLE epoch observation values (Epoch: 2025-11-04T05:25:57.795Z)
Latitude
-0.00007°
Longitude
-103.28124°
Altitude
1,178.152 km
Speed
7.265 km/s
True Right ascension
01h 27m 42s
True Declination
0° 00' 00"
Sunlit
Object was in full shadow at epoch
Visualization orbit readout
Latitude
Unknown
Longitude
Unknown
Altitude
Unknown
Speed
Unknown
Apparent Right ascension
Unknown
Apparent Declination
Unknown
Sunlit
N/A
Visualization observer readout
Local Sidereal Time
10:04:00
Azimuth
Unknown
Elevation
Unknown
Doppler factor
Unknown
Orbital elements
Apogee altitude
1,199.996 km
Perigee altitude
1,147.357 km
Semi-major axis
7,551.813 km
Eccentricity
0.00349
Inclination
90.2571°
RAAN
21.926°
Arg. of periapsis
87.383°
True anomaly
272.73043°
Mean anomaly
273.1293°
Eccentric anomaly
272.92987°
Mean motion
3.30724 °/min
Orbital period
108.85 mins
BSTAR
0.0028345
Loading maneuver chart data...
Computing Atmospheric mass density...
Loading historical data...
Loading historical data...
Loading historical data...
Loading historical data...
Loading historical data...
Loading historical data...
Loading historical data...

Documentation

Showing up to 5 results
|